Tracking 20093 objects as of 14-Dec-2019
HD Live streaming from Space Station
objects crossing your sky now

EKRAN 6

Track EKRAN 6 now!
EKRAN 6 is classified as:


NORAD ID: 12120
Int'l Code: 1980-104A
Perigee: 35,753.8 km
Apogee: 35,832.2 km
Inclination: 11.6 °
Period: 1,436.1 minutes
Semi major axis: 42164 km
RCS: 6.3095 m2 (large)
Launch date: December 26, 1980
Source: Commonwealth of Independent States (former USSR) (CIS)
Launch site: TYURATAM MISSILE AND SPACE COMPLEX (TTMTR)
aabbcc
Your satellite tracking list
Your tracking list is empty




NASA's NSSDC Master Catalog

Two Line Element Set (TLE):
1 12120U 80104A   19347.99795797  .00000103  00000-0  00000+0 0  9998
2 12120  11.6370 315.9468 0009299   5.2175 172.2209  1.00274352103563
Source of the keplerian elements: AFSPC